Theta_e
342 344 340 341 341 338 340 339 340 341 341 340 339 339 339 338 337 337 336 338 340 342 341 341 339 338 338 337 334 334 334 333 333 334 336 337 337 336 332 333 334 335 335
342 344 340 339 341 338 339 339 339 340 340 340 338 337 339 338 338 336 336 338 339 340 341 339 337 336 335 333 334 334 334 334 332 332 336 336 336 337 335 333 333 334 334
341 344 341 341 341 340 338 339 337 339 340 339 338 338 338 338 337 335 336 337 338 341 340 338 338 337 333 334 334 333 333 333 332 334 337 336 335 334 333 330 329 329 329
342 343 343 340 341 340 338 339 337 337 338 338 338 338 337 336 335 336 337 337 338 338 339 339 338 336 334 332 330 330 331 332 332 334 335 334 333 331 330 329 326 321 323
342 342 343 339 339 339 338 340 338 337 337 337 337 336 336 335 336 336 338 338 338 339 339 337 336 334 330 325 321 321 324 328 332 333 333 331 330 329 328 325 322 321 321
342 342 342 339 338 339 338 339 338 337 337 336 336 335 336 336 336 337 338 338 339 338 336 334 333 326 322 321 323 326 327 329 332 331 330 328 327 326 324 322 321 321 321
342 342 340 339 338 338 338 338 338 337 336 336 336 336 337 337 338 338 339 337 336 334 333 330 322 322 321 320 320 323 327 328 329 329 327 325 323 322 321 321 320 320 320
342 342 341 339 338 338 337 337 337 336 336 337 336 336 338 338 338 338 336 334 333 328 323 323 324 319 314 309 308 310 314 316 319 320 320 320 320 321 320 320 320 320 320
342 342 341 340 339 338 338 337 336 336 336 337 337 337 338 338 337 335 334 329 324 325 326 324 318 310 305 304 305 305 306 311 313 313 315 319 320 320 319 320 320 320 319
341 341 340 340 340 340 339 337 336 335 336 337 337 338 337 336 333 331 326 326 326 325 321 312 306 304 303 302 303 303 304 309 311 313 317 318 319 319 320 319 319 319 318
336 334 333 335 334 335 335 335 335 334 335 336 337 336 334 333 331 326 325 323 322 317 309 305 303 302 301 301 301 302 307 309 310 314 317 318 319 319 317 318 318 318 317
330 334 333 336 335 333 333 333 333 332 334 334 333 332 332 331 327 322 322 319 314 308 304 302 301 301 306 306 304 305 307 309 313 316 317 318 319 317 318 317 318 318 314
313 328 334 333 333 332 327 324 327 323 323 327 331 330 330 327 321 319 317 312 307 307 306 305 305 306 306 306 305 306 308 310 314 315 316 316 316 317 317 319 317 315 314
309 310 329 333 330 324 323 324 327 323 324 321 322 325 329 326 320 318 314 310 305 306 305 306 305 305 305 305 306 308 310 311 313 314 314 314 317 319 317 318 316 314 315
306 308 310 326 331 327 324 323 323 322 323 322 320 321 327 325 317 313 310 308 305 305 305 306 305 305 305 306 308 309 310 311 311 311 311 312 314 316 318 317 316 315 314
305 307 308 312 330 330 326 327 323 324 323 322 322 322 323 325 319 309 308 307 305 305 305 305 305 305 306 307 307 308 308 308 309 309 309 309 311 312 313 315 314 314 314
304 306 309 311 317 329 330 327 327 325 323 323 325 324 325 324 321 310 306 306 304 303 304 304 304 305 306 306 306 305 305 305 305 305 306 307 307 309 309 309 310 310 310
303 305 308 311 317 326 327 328 326 327 324 323 324 325 325 324 317 312 305 304 302 303 304 304 304 305 306 306 305 304 303 302 301 301 301 302 301 302 305 305 305 305 306
303 304 308 312 321 326 325 325 325 325 326 323 323 323 323 323 320 313 307 305 302 302 303 302 304 305 306 305 304 303 302 301 300 299 299 298 297 298 297 295 296 300 303
302 304 308 313 319 325 324 324 324 322 322 322 320 319 319 318 311 306 304 302 301 301 301 302 303 305 305 303 303 303 302 301 300 299 298 298 297 297 297 297 297 295 297
302 304 306 311 314 320 321 320 320 320 319 319 318 318 318 315 310 309 307 304 300 299 299 299 300 304 304 303 303 303 302 301 300 299 298 298 297 297 296 296 296 296 297
301 301 302 303 307 315 317 318 318 318 317 316 315 314 314 313 311 307 307 302 300 300 298 299 300 302 303 304 306 306 306 303 300 299 298 297 297 296 296 295 295 295 296
298 300 300 300 303 309 312 315 315 315 314 313 312 312 311 311 310 308 307 306 307 306 304 301 299 300 301 303 303 306 307 308 303 299 298 297 297 296 296 295 295 294 295
296 297 299 299 299 303 308 310 312 312 313 311 311 311 310 310 309 309 309 308 306 300 299 298 299 301 303 304 303 302 302 304 306 304 298 297 296 296 296 295 295 294 294
293 294 296 297 298 298 302 304 306 307 308 308 309 309 309 309 308 308 308 306 303 300 298 299 299 300 300 302 303 302 302 302 302 304 307 298 296 296 295 295 295 294 293
292 292 293 294 295 296 297 298 301 303 305 306 305 305 306 306 307 306 306 304 302 302 299 297 297 298 299 298 300 301 301 302 302 302 304 302 300 295 295 295 295 294 293
Wind_Speed
2 9 15 14 12 12 12 13 14 12 12 12 13 14 12 13 12 11 10 10 10 12 12 12 12 12 11 10 10 9 10 10 10 11 10 12 13 15 15 15 15 16 15
4 10 13 14 12 11 11 13 15 14 13 13 13 14 14 14 12 10 10 10 10 11 13 13 12 11 9 8 9 8 8 9 10 10 10 14 14 16 16 14 15 15 16
8 10 11 11 10 11 12 13 15 15 14 13 14 15 14 13 12 10 9 9 9 13 13 13 13 11 8 8 8 7 8 9 9 10 7 13 13 14 14 13 13 13 13
6 8 10 11 12 12 13 13 14 15 14 14 14 14 14 12 11 11 11 10 10 11 14 13 13 10 9 8 7 7 7 8 9 8 12 13 11 11 11 12 12 11 11
5 7 8 11 12 12 13 13 15 15 15 14 14 14 14 13 12 12 12 11 12 12 15 14 10 9 9 8 7 8 9 10 10 8 9 10 9 9 10 11 11 13 13
4 6 4 7 11 11 12 13 15 15 15 14 14 14 15 15 14 14 14 15 17 17 12 9 8 9 8 8 7 8 10 12 9 8 10 7 8 9 10 11 12 13 14
5 7 6 11 8 11 11 12 14 15 15 14 14 15 16 17 17 18 18 18 14 11 10 10 10 9 8 7 7 8 9 10 7 7 7 8 8 9 10 11 12 13 13
3 5 7 9 10 11 11 11 13 16 16 15 16 16 17 18 18 18 16 14 10 10 12 11 10 9 7 7 7 8 8 10 7 7 7 8 10 10 10 11 12 13 13
4 6 7 8 11 12 11 12 13 14 16 16 17 19 20 19 17 15 14 12 13 12 11 9 8 8 7 7 6 7 7 9 6 7 6 7 10 10 11 11 11 11 12
6 6 8 9 10 10 9 12 12 14 17 20 21 21 21 18 16 14 13 15 14 12 10 9 8 7 5 5 6 7 9 11 7 7 8 9 10 11 10 10 12 12 13
7 8 8 9 9 7 5 6 12 13 18 21 22 23 20 18 16 13 13 15 14 11 10 8 7 5 5 6 7 9 10 7 7 7 8 10 9 9 11 11 12 13 13
14 12 9 4 7 10 8 5 5 6 8 18 24 24 21 17 14 13 17 15 12 9 7 6 6 8 9 6 7 9 8 8 9 10 10 8 10 10 10 11 13 14 13
16 13 7 5 5 6 8 12 9 20 22 15 17 23 21 22 17 12 15 12 11 9 7 7 7 6 7 6 7 8 9 9 9 10 11 10 9 10 12 12 12 13 13
15 14 12 5 6 5 5 13 17 9 9 24 14 13 20 18 15 12 12 11 9 8 8 7 7 8 9 9 9 9 10 9 9 10 9 11 13 12 11 12 13 12 14
17 15 14 11 9 11 7 7 6 7 7 9 17 15 15 16 11 9 9 9 8 8 7 8 8 8 9 9 9 9 10 11 10 9 8 7 11 13 13 13 13 13 13
19 17 16 15 11 9 11 11 9 11 8 2 5 11 10 15 15 9 8 9 9 9 8 9 8 9 9 9 9 9 9 9 10 10 8 9 8 15 17 15 14 13 13
17 17 16 15 13 10 11 10 12 15 15 16 14 12 12 13 16 15 8 9 9 9 9 10 9 10 11 9 8 8 9 10 9 9 9 8 6 5 7 15 14 13 13
16 17 16 14 12 10 6 11 14 16 18 17 16 17 13 13 14 13 11 10 9 8 9 9 9 9 10 9 8 7 8 9 9 9 8 7 7 5 4 6 10 12 12
15 16 15 13 10 6 4 5 7 13 14 15 17 22 20 16 17 16 14 13 9 8 7 9 9 9 9 9 9 7 7 8 8 8 9 8 8 7 5 6 7 10 12
15 15 14 11 9 3 3 5 6 6 6 9 14 21 19 18 19 19 16 14 11 11 9 8 11 10 7 8 9 8 7 6 6 6 7 7 7 6 6 5 5 7 9
16 15 14 12 14 7 2 4 5 5 4 5 9 14 18 17 15 15 15 15 14 13 12 11 11 12 11 8 8 7 7 5 5 5 5 5 5 5 6 6 6 4 6
16 17 16 15 14 12 10 2 2 5 6 5 7 10 14 17 17 16 17 18 17 19 15 12 10 11 7 10 3 6 3 4 3 3 3 3 2 3 4 5 6 5 5
18 18 17 17 16 15 9 6 3 5 7 7 9 10 13 15 15 16 17 17 16 15 15 12 12 12 9 11 5 3 2 1 7 3 2 1 1 1 3 4 5 5 5
19 17 18 17 19 19 15 12 9 5 2 1 8 10 12 13 14 14 16 16 16 15 15 15 14 13 10 8 6 6 1 1 1 2 2 3 2 1 1 1 3 4 4
18 19 18 18 18 20 19 18 15 13 10 4 5 9 10 12 11 13 14 14 16 16 13 14 14 14 12 8 7 4 4 3 4 3 2 4 4 4 3 1 2 2 3
16 17 18 19 20 19 19 20 18 15 13 10 5 3 6 8 10 10 11 13 15 16 16 14 14 11 9 11 10 6 5 2 4 5 2 4 5 4 5 3 1 1 2
Wind_Direction
233 166 177 176 182 186 181 181 181 175 165 168 177 175 171 163 162 157 157 154 146 134 127 121 115 107 98 95 93 90 87 96 98 88 86 81 70 58 61 68 58 51 51
162 157 175 178 187 188 188 188 186 182 171 166 166 173 173 167 166 163 163 159 153 142 133 128 121 120 122 108 99 95 92 100 102 89 93 75 70 68 59 68 63 53 49
156 156 169 178 189 196 201 196 191 188 180 173 166 168 173 171 168 164 160 159 156 150 141 132 129 126 126 114 107 102 99 103 102 88 99 84 63 56 57 54 52 48 42
161 172 176 182 192 198 204 198 196 194 189 182 175 171 172 173 172 167 161 161 164 158 141 142 138 136 120 116 110 108 106 109 102 76 86 74 67 53 48 42 39 40 46
174 182 197 192 196 198 201 202 198 197 193 188 183 177 173 173 170 165 159 156 156 146 132 137 127 124 120 115 112 108 106 103 93 66 68 73 62 43 46 45 44 44 53
207 204 222 208 205 210 209 202 199 197 196 191 186 180 173 168 163 163 153 141 136 139 129 127 134 122 120 119 115 110 107 105 81 74 80 65 58 46 52 51 56 59 59
233 230 231 201 218 227 215 207 204 201 198 192 184 176 169 162 160 153 147 137 139 139 141 139 125 119 118 115 113 113 115 105 90 87 76 63 55 54 57 60 60 60 61
255 231 228 219 227 228 224 213 211 209 202 193 181 173 163 161 154 149 148 151 149 151 139 133 128 122 115 109 110 113 112 97 77 80 74 63 65 62 61 61 63 66 64
262 238 234 228 236 229 224 220 216 211 203 192 178 167 162 159 157 159 162 159 143 138 134 130 125 122 119 116 112 106 107 103 76 76 71 65 71 69 67 68 63 67 64
293 260 245 238 238 232 225 224 225 211 202 186 177 170 168 163 155 160 148 136 134 134 132 130 125 119 115 117 117 103 92 79 76 74 70 78 75 75 73 67 70 71 68
304 306 290 284 284 283 276 265 238 234 215 198 179 172 163 158 161 134 153 139 138 137 135 133 124 102 84 97 105 103 80 82 80 75 76 81 81 82 74 75 74 71 67
352 341 330 286 246 245 206 19 65 5 228 182 173 168 164 163 147 147 156 151 149 146 141 129 108 90 85 86 79 72 80 83 83 80 79 88 88 77 81 78 78 74 65
346 352 352 316 254 245 282 308 301 334 329 357 188 165 165 160 155 144 147 138 136 113 109 96 81 89 93 89 86 88 88 87 90 84 93 91 79 81 83 84 79 72 68
342 346 339 296 240 230 270 239 236 335 350 332 336 153 164 166 155 155 154 160 146 139 126 114 108 94 84 85 87 91 96 99 96 94 103 106 80 76 80 82 75 69 66
339 334 327 323 272 251 215 154 159 206 248 302 344 308 173 179 164 159 158 147 148 134 124 111 105 99 90 82 84 90 94 100 100 99 98 115 96 68 73 78 76 65 61
334 331 325 314 290 251 231 218 198 188 202 162 242 258 211 201 183 161 155 149 138 140 130 121 114 106 96 90 89 91 92 93 99 101 100 100 118 85 61 69 70 63 56
331 329 326 316 302 266 209 206 207 206 181 178 190 202 245 219 200 181 163 130 135 140 130 122 115 111 105 97 91 89 93 95 92 96 101 95 85 126 110 62 60 58 50
334 333 331 323 308 287 238 200 196 206 215 206 210 193 206 214 208 189 162 153 139 125 126 122 121 116 112 112 107 94 90 86 89 87 92 93 86 75 139 124 102 55 46
342 340 341 336 330 298 274 184 193 194 209 228 219 203 199 202 196 194 178 170 160 124 126 127 119 120 119 117 113 104 94 89 85 86 84 79 82 84 63 57 52 60 50
353 356 353 351 1 38 101 151 156 165 184 202 209 204 197 192 188 183 174 172 156 152 153 131 129 119 117 128 120 107 93 89 88 87 83 82 76 73 76 76 45 20 39
8 12 8 5 5 13 124 100 125 140 157 197 211 213 207 197 198 193 183 173 169 158 152 159 146 127 127 140 127 108 101 94 94 95 96 87 81 74 67 58 59 49 8
13 17 19 12 18 29 47 83 140 171 167 189 199 207 204 198 199 196 191 182 177 164 154 153 139 135 150 176 258 168 163 148 129 109 108 103 93 75 60 56 56 47 43
21 17 22 21 28 42 48 41 95 122 131 147 168 186 195 194 197 202 198 196 191 179 176 166 168 177 170 197 197 285 166 115 145 160 140 147 132 83 62 43 45 43 52
24 26 26 29 33 44 51 58 43 55 110 153 192 183 186 196 198 199 199 198 196 178 174 178 183 185 183 177 201 229 224 58 246 154 194 216 208 207 86 35 44 40 52
27 29 32 34 38 39 50 54 58 43 48 65 162 174 182 188 201 203 205 202 195 188 185 198 196 201 187 172 193 161 215 240 258 277 152 183 230 223 217 186 64 52 55
32 31 33 36 38 38 42 45 52 50 47 42 65 139 178 184 197 205 205 203 198 197 198 202 201 213 217 192 184 195 202 199 216 223 243 136 197 198 213 219 152 90 88